Location: Ciserano
(45.5833°N, 9.6000°E)
Time: 18:32:40
(UTC+00:00)

EO 1 Delta rocket - Pass Details

Date: 29 November 2020
Orbit: 698 x 1791 km, 95.4° (Epoch: 23 January)

Event Time Altitude Azimuth Distance (km) Brightness Sun altitude
Rises 05:37:33 0° 189° (S) 3,413 7.5 -10.6°
Reaches altitude 10° 05:40:12 10° 198° (SSW) 2,367 6.6 -10.2°
Maximum altitude 05:44:53 37° 266° (W) 1,117 4.4 -9.4°
Drops below altitude 10° 05:49:13 10° 334° (NNW) 2,174 5.9 -8.7°
Sets 05:51:34 0° 343° (NNW) 3,097 6.8 -8.3°
